Regional Weather Roundup
Issued by NWS

Home | Current Version | Previous Version | Graphics & Text | Print | Product List | Glossary On
Versions: 1 2 3 4 5 6 7 8 9 10 11 12 13 14 15 16 17 18 19 20 21 22 23 24 25 26 27 28 29 30 31 32 33 34 35 36 37 38 39 40 41 42 43 44 45 46 47 48 49 50
000
ASUS45 KPSR 111700
RWRAZ

PRELIMINARY ARIZONA REGIONAL HOURLY WEATHER ROUNDUP
NATIONAL WEATHER SERVICE PHOENIX AZ
1000 AM MST FRI JUL 11 2014

NOTE: FAIR INDICATES FEW OR NO CLOUDS BELOW 12,000 FEET WITH NO
SIGNIFICANT WEATHER AND/OR OBSTRUCTIONS TO VISIBILITY.

AZZ001>003-036-111800-
NORTHWEST ARIZONA

CITY           SKY/WX    TMP DP  RH WIND       PRES   REMARKS
KINGMAN        SUNNY     84  46  26 CALM      30.07S
$$

AZZ004>008-015-016-018-111800-
NORTH CENTRAL ARIZONA

CITY           SKY/WX    TMP DP  RH WIND       PRES   REMARKS
GRAND CANYON   SUNNY     72  48  42 W7G16     30.31R
PRESCOTT       MOSUNNY   79  55  43 NE6       30.19S
FLAGSTAFF      SUNNY     73  44  35 VRB7      30.32S
PAYSON         SUNNY     82  55  39 VRB7      30.21S
PAGE           SUNNY     83  53  35 N5        30.13S
$$

AZZ009>014-017-111800-
NORTHEAST ARIZONA

CITY           SKY/WX    TMP DP  RH WIND       PRES   REMARKS
WINSLOW        NOT AVBL
SAINT JOHNS    SUNNY     80  52  37 VRB5      30.22F
WINDOW ROCK    MOSUNNY   78  50  37 VRB3      30.30F
$$

AZZ023-111800-
GREATER PHOENIX AREA

CITY           SKY/WX    TMP DP  RH WIND       PRES   REMARKS
PHOENIX        MOSUNNY   96  57  27 SW5       29.89S
GLENDALE       MOSUNNY   93  57  29 SW3       29.91F
DEER VALLEY    SUNNY     92  57  30 SW5       29.91F
SCOTTSDALE     SUNNY     93  60  33 CALM      29.94S
MESA-FALCON    MOSUNNY   91  59  33 SW6       29.92S
MESA-GATEWAY   MOSUNNY   93  57  29 CALM      29.94S
CHANDLER       MOSUNNY   95  59  30 MISG      29.92S
$$

AZZ027-028-111800-
SOUTHWEST MARICOPA COUNTY AND PINAL COUNTY

CITY           SKY/WX    TMP DP  RH WIND       PRES   REMARKS
CASA GRANDE    SUNNY     91  57  31 W6        29.94S
GILA BEND      MOSUNNY   95  46  18 W8G14     29.92S
$$

AZZ503-504-507>509-111800-
SOUTHEAST ARIZONA

CITY           SKY/WX    TMP DP  RH WIND       PRES   REMARKS
TUCSON         SUNNY     89  59  36 VRB6      30.03F
DAVIS-MONTHAN  SUNNY     87  59  38 VRB2      30.02F
RYAN FIELD       N/A     88  57  35 CALM      30.02S
NOGALES        SUNNY     83  56  39 CALM      30.10S
SIERRA VISTA   MOSUNNY   79  59  50 CALM      30.16S
SAFFORD        MOSUNNY   87  58  37 VRB5      30.03S
$$

AZZ020-021-025-026-031-111800-
SOUTHWEST ARIZONA

CITY           SKY/WX    TMP DP  RH WIND       PRES   REMARKS
YUMA           NOT AVBL
$$

CAZ031-033-041-043-047-048-061-111800-
SOUTHERN CALIFORNIA

CITY           SKY/WX    TMP DP  RH WIND       PRES   REMARKS
DOWNTOWN L.A.  SUNNY     75  59  57 VRB3      29.99S
L.A. AIRPORT   MOSUNNY   72  59  63 SW8       30.01R
SAN DIEGO      MOSUNNY   74  60  61 W8        30.01S
BURBANK        SUNNY     71  59  65 SE5       30.00S
ONTARIO        SUNNY     72  60  66 VRB3      30.00S
RIVERSIDE      SUNNY     73  61  65 VRB3      30.00S
PALM SPRINGS   SUNNY     95  44  17 E6        29.89S
EL CENTRO NAS  MOSUNNY   97  46  17 VRB5      29.85F
IMPERIAL       SUNNY     95  49  20 SW6       29.84F
BLYTHE         SUNNY     95  49  20 E6        29.86S
$$

NVZ020-UTZ003-111800-
SOUTHERN NEVADA-UTAH

CITY           SKY/WX    TMP DP  RH WIND       PRES   REMARKS
LAS VEGAS      NOT AVBL
SALT LAKE CITY LGT RAIN  70  61  73 S6        30.11R
$$

NMZ009-TXZ055-111800-
NEW MEXICO-WEST TEXAS

CITY           SKY/WX    TMP DP  RH WIND       PRES   REMARKS
ALBUQUERQUE    MOSUNNY   82  51  34 SW5       30.19S
EL PASO        MOSUNNY   86  55  34 S7        30.08S
$$


........................KEY........................
SKY/WX - SKY CONDITION/WEATHER
TMP    - TEMPERATURE IN FAHRENHEIT
DP     - DEW POINT IN FAHRENHEIT
RH     - RELATIVE HUMIDITY IN PERCENT
WIND   - DIRECTION AND SPEED IN MILES PER HOUR (MPH)
VRB    - VARIABLE WIND DIRECTION
PRES   - MEAN SEA LEVEL PRESSURE IN INCHES OF MERCURY
         F - FALLING PRESSURE   R - RISING PRESSURE
         S - STEADY PRESSURE
VSB    - VISIBILITY IN MILES
HX     - HEAT INDEX IN FAHRENHEIT
WCI    - WIND CHILL INDEX IN FAHRENHEIT
TC     - TEMPERATURE IN CELSIUS WHICH IS ALSO KNOWN AS
         TEMPERATURE IN CENTIGRADE
AFB    - AIR FORCE BASE
         LUKE AFB IS LUKE AIR FORCE BASE
         DAVIS-MONTHAN IS DAVIS-MONTHAN AIR FORCE BASE
NAS    - NAVAL AIR STATION
         EL CENTRO NAS IS EL CENTRO NAVAL AIR STATION
N/A    - NOT AVAILABLE


USA.gov is the U.S. government's official web portal to all federal, state and local government web resources and services.